SV1BIX Weather Reports


Display with metric or nautical units.
time (UTC)temp
F
wind
direction
speed
MPH
gust
MPH
rain 1hr
in
rain 24hr
in
rain mn
in
humidity
%
barometer
mb
20260507010032 0 0.0 0.0 0.00 0.00 0.00 1016.5
20260507004522 0 0.0 0.0 0.00 0.00 0.00 1016.5
20260507003018 0 0.0 0.0 0.00 0.00 0.00 1016.3
20260507001514 0 0.0 0.0 0.00 0.00 0.00 1016.3
20260507000100 0 0.0 0.0 0.00 0.00 0.00 1016.5
20260506234554 0 0.0 0.0 0.00 0.00 0.00 1016.8
20260506233050 0 0.0 0.0 0.00 0.00 0.00 1017.0
20260506231549 63 197 0.0 0.0 0.00 0.00 0.00 58 1017.1
20260506230046 63 197 0.0 0.0 0.00 0.00 0.00 59 1017.1
20260506224547 63 197 0.0 0.0 0.00 0.00 0.00 58 1017.1
20260506223101 63 197 0.0 0.0 0.00 0.00 0.00 58 1017.2
20260506221541 63 197 0.0 0.0 0.00 0.00 0.00 59 1017.3
20260506220029 64 197 0.0 0.0 0.00 0.00 0.00 57 1017.2
20260506214529 63 198 0.0 0.0 0.00 0.00 0.00 58 1017.2
20260506213025 64 197 0.0 0.0 0.00 0.00 0.00 60 1017.5
20260506211523 64 197 0.0 0.0 0.00 0.00 0.00 61 1017.6
20260506210020 65 196 0.0 0.0 0.00 0.00 0.00 59 1017.7
20260506204520 65 197 0.0 1.0 0.00 0.00 0.00 55 1017.8
20260506203021 65 197 0.0 0.0 0.00 0.00 0.00 52 1017.8
20260506201518 66 197 0.0 0.0 0.00 0.00 0.00 50 1017.7
20260506200005 67 197 0.0 0.0 0.00 0.00 0.00 48 1017.5
20260506194506 67 197 0.0 0.0 0.00 0.00 0.00 47 1017.4
20260506193002 68 197 0.0 0.0 0.00 0.00 0.00 45 1017.2
20260506191502 68 197 0.0 0.0 0.00 0.00 0.00 44 1017.0
20260506190002 69 197 0.0 0.0 0.00 0.00 0.00 43 1016.9
20260506184502 69 197 1.0 5.0 0.00 0.00 0.00 41 1016.7
20260506183106 70 197 2.0 6.0 0.00 0.00 0.00 42 1016.7
20260506181600 70 197 1.0 6.0 0.00 0.00 0.00 42 1016.5
20260506180053 70 197 0.0 4.0 0.00 0.00 0.00 40 1016.4
20260506174547 70 197 0.0 5.0 0.00 0.00 0.00 39 1016.3
20260506173053 70 197 3.0 6.0 0.00 0.00 0.00 39 1016.1
20260506171552 0 0.0 0.0 0.00 0.00 0.00 1016.1
20260506170042 71 197 7.0 11.0 0.00 0.00 0.00 40 1015.9
20260506164541 71 197 6.0 12.0 0.00 0.00 0.00 41 1016.0
20260506163046 71 200 6.0 14.0 0.00 0.00 0.00 40 1016.0
20260506161551 72 200 8.0 14.0 0.00 0.00 0.00 39 1015.9
20260506160028 72 197 7.0 13.0 0.00 0.00 0.00 38 1015.8
20260506154527 72 200 6.0 13.0 0.00 0.00 0.00 39 1015.9
20260506153025 72 198 7.0 17.0 0.00 0.00 0.00 39 1016.1
20260506151526 72 203 8.0 16.0 0.00 0.00 0.00 40 1016.1
20260506150027 72 200 8.0 15.0 0.00 0.00 0.00 41 1016.2
20260506144526 73 200 5.0 13.0 0.00 0.00 0.00 44 1016.2
20260506143024 73 200 5.0 15.0 0.00 0.00 0.00 43 1016.2
20260506141522 73 201 6.0 16.0 0.00 0.00 0.00 44 1016.3
20260506140011 73 200 6.0 15.0 0.00 0.00 0.00 43 1016.2
20260506134520 73 198 8.0 0.0 0.00 0.00 0.00 44 1016.3
20260506133006 0 0.0 0.0 0.00 0.00 0.00 1016.4
20260506131503 0 0.0 0.0 0.00 0.00 0.00 1016.4
20260506130058 0 0.0 0.0 0.00 0.00 0.00 1016.4
20260506124554 73 198 8.0 13.0 0.00 0.00 0.00 43 1016.5
20260506123055 73 200 5.0 13.0 0.00 0.00 0.00 44 1016.6
20260506121604 74 200 5.0 14.0 0.00 0.00 0.00 43 1016.7
20260506120040 74 198 3.0 10.0 0.00 0.00 0.00 43 1016.8
20260506114546 73 198 7.0 11.0 0.00 0.00 0.00 40 1016.8
20260506113040 73 197 5.0 10.0 0.00 0.00 0.00 41 1017.0
20260506111537 73 197 2.0 11.0 0.00 0.00 0.00 44 1017.0
20260506110036 72 197 2.0 10.0 0.00 0.00 0.00 43 1017.1
20260506104535 72 197 4.0 9.0 0.00 0.00 0.00 48 1017.1
20260506103034 73 197 6.0 10.0 0.00 0.00 0.00 45 1017.1
20260506101535 73 197 5.0 8.0 0.00 0.00 0.00 44 1017.2
20260506100028 73 197 3.0 8.0 0.00 0.00 0.00 46 1017.2
20260506094516 73 197 2.0 7.0 0.00 0.00 0.00 46 1017.3
20260506093001 73 198 2.0 6.0 0.00 0.00 0.00 43 1017.3
20260506091601 72 197 3.0 8.0 0.00 0.00 0.00 45 1017.3
20260506090058 72 197 0.0 8.0 0.00 0.00 0.00 47 1017.3
20260506084604 72 197 1.0 5.0 0.00 0.00 0.00 50 1017.2
20260506083114 71 197 1.0 5.0 0.00 0.00 0.00 51 1017.2
20260506081553 70 197 1.0 7.0 0.00 0.00 0.00 51 1017.3
20260506073048 70 198 3.0 6.0 0.00 0.00 0.00 49 1016.9
20260506071534 69 198 0.0 4.0 0.00 0.00 0.00 52 1016.8
20260506061533 0 0.0 0.0 0.00 0.00 0.00 1016.8
20260506044557 63 197 0.0 0.0 0.00 0.00 0.00 59 1016.2
20260506043057 62 198 0.0 0.0 0.00 0.00 0.00 62 1016.3
20260506041601 60 197 0.0 0.0 0.00 0.00 0.00 62 1016.2
20260506040052 60 198 0.0 0.0 0.00 0.00 0.00 62 1016.0
20260506034554 0 0.0 0.0 0.00 0.00 0.00 1015.8
20260506033045 0 0.0 0.0 0.00 0.00 0.00 1015.7
20260506031541 0 0.0 0.0 0.00 0.00 0.00 1015.7
20260506030037 0 0.0 0.0 0.00 0.00 0.00 1015.5
20260506024535 0 0.0 0.0 0.00 0.00 0.00 1015.6
20260506023020 60 197 0.0 1.0 0.00 0.00 0.00 66 1015.6
20260506021518 60 197 0.0 1.0 0.00 0.00 0.00 68 1015.8
20260506020016 60 197 0.0 0.0 0.00 0.00 0.00 68 1015.8
20260506014515 60 197 0.0 0.0 0.00 0.00 0.00 68 1016.0
20260506013011 61 198 0.0 0.0 0.00 0.00 0.00 68 1016.0
20260506011518 62 197 0.0 1.0 0.00 0.00 0.00 66 1016.0